Shelby, NC

3:10 AM EDT on October 17, 2017 (GMT -0400)
Shelby Municipal

Weather History for KEHO - December, 2013

Change the Weather History Date:

Sunday, December 22, 2013

  Actual Average (KHKY) Record (KHKY)
Temperature  
Mean Temperature 66 °F -  
Max Temperature 70 °F 47 °F 68 °F (2013)
Min Temperature 61 °F 29 °F 9 °F (1960)
Growing Degree Days 16 (Base 50)    
Moisture  
Dew Point 63 °F    
Average Humidity 93    
Maximum Humidity 100    
Minimum Humidity 79    
Precipitation  
Precipitation 1.86 in - - ()
Sea Level Pressure  
Sea Level Pressure 30.03 in    
Wind  
Wind Speed 9 mph (South)    
Max Wind Speed 16 mph    
Max Gust Speed 23 mph    
Visibility 9 miles    
Events Rain    
Averages and records for this station are not official NWS values.
T = Trace of Precipitation, MM = Missing Value Source: NWS Daily Summary

Daily Weather History Graph

Daily Weather History Graph

Search for Another Location

Airport or City:

Trip Planner

Search our weather history database for the weather conditions in past years. The results will help you decide how hot, cold, wet, or windy it might be!

Date:

Astronomy

Dec. 22, 2013 Rise Set
Actual Time 7:31 AM EST 5:18 PM EST
Civil Twilight 7:03 AM EST 5:46 PM EST
Nautical Twilight 6:31 AM EST 6:18 PM EST
Astronomical Twilight 6:00 AM EST 6:49 PM EST
Moon 10:19 PM EST (12/22) 10:36 AM EST (12/22)
Length of Visible Light 10h 43m
Length of Day
9h 46m
Waning Gibbous, 77% of the Moon is Illuminated
Dec 22
Waning Gibbous
Dec 25
Last Quarter
Jan 1
New
Jan 7
First Quarter
Jan 15
Full

Hourly Weather History & Observations

Time (EST) Temp. Dew Point Humidity Pressure Visibility Wind Dir Wind Speed Gust Speed Precip Events Conditions
12:15 AM 66.2 °F 61.7 °F 85% 30.01 in 10.0 mi South 11.5 mph 17.3 mph N/A   Overcast
12:35 AM 66.2 °F 61.7 °F 85% 30.00 in 10.0 mi South 12.7 mph 18.4 mph N/A   Overcast
12:55 AM 66.2 °F 61.9 °F 86% 29.99 in 10.0 mi SSE 11.5 mph 20.7 mph N/A   Overcast
1:15 AM 65.8 °F 61.9 °F 87% 29.99 in 10.0 mi South 11.5 mph 17.3 mph N/A   Overcast
1:35 AM 65.7 °F 62.2 °F 89% 30.00 in 10.0 mi South 12.7 mph 18.4 mph N/A   Mostly Cloudy
1:55 AM 65.8 °F 62.6 °F 89% 29.99 in 10.0 mi South 12.7 mph 18.4 mph N/A   Overcast
2:15 AM 66.2 °F 62.8 °F 89% 30.00 in 10.0 mi South 13.8 mph 18.4 mph N/A   Overcast
2:35 AM 66.2 °F 63.0 °F 89% 30.01 in 10.0 mi South 10.4 mph 17.3 mph N/A   Overcast
2:55 AM 66.2 °F 63.0 °F 89% 30.02 in 10.0 mi South 8.1 mph 16.1 mph N/A   Overcast
3:15 AM 66.2 °F 63.0 °F 89% 30.01 in 10.0 mi South 10.4 mph 16.1 mph N/A   Overcast
3:35 AM 66.6 °F 63.3 °F 89% 30.00 in 10.0 mi SSE 15.0 mph 20.7 mph N/A   Overcast
3:55 AM 66.2 °F 63.5 °F 91% 30.01 in 10.0 mi South 9.2 mph 16.1 mph N/A   Overcast
4:15 AM 67.1 °F 63.9 °F 89% 30.00 in 10.0 mi South 11.5 mph 21.9 mph N/A   Overcast
4:35 AM 66.4 °F 63.5 °F 90% 29.99 in 10.0 mi South 11.5 mph 18.4 mph N/A   Overcast
4:55 AM 66.4 °F 63.7 °F 91% 29.99 in 10.0 mi South 11.5 mph 16.1 mph N/A   Overcast
5:15 AM 67.1 °F 64.0 °F 90% 29.99 in 10.0 mi South 10.4 mph 18.4 mph N/A   Overcast
5:35 AM 67.1 °F 63.9 °F 89% 29.99 in 10.0 mi South 12.7 mph 19.6 mph N/A   Overcast
5:55 AM 67.1 °F 63.5 °F 88% 30.00 in 10.0 mi South 10.4 mph 20.7 mph N/A   Overcast
6:15 AM 67.1 °F 63.7 °F 89% 30.01 in 10.0 mi SSW 12.7 mph - N/A   Overcast
6:35 AM 67.1 °F 63.9 °F 89% 30.01 in 10.0 mi South 9.2 mph 18.4 mph N/A   Overcast
6:55 AM 66.2 °F 64.0 °F 93% 30.02 in 5.0 mi South 9.2 mph - 0.03 in Rain Light Rain
7:15 AM 65.3 °F 63.9 °F 95% 30.02 in 10.0 mi South 6.9 mph - N/A   Overcast
7:35 AM 65.3 °F 64.0 °F 96% 30.03 in 10.0 mi South 8.1 mph - N/A   Overcast
7:55 AM 65.3 °F 64.0 °F 96% 30.02 in 7.0 mi South 6.9 mph - N/A   Light Drizzle
8:15 AM 65.3 °F 64.0 °F 96% 30.03 in 7.0 mi South 8.1 mph - N/A   Overcast
8:35 AM 65.8 °F 64.4 °F 95% 30.03 in 10.0 mi South 8.1 mph - N/A   Overcast
8:55 AM 66.2 °F 64.4 °F 94% 30.04 in 10.0 mi South 8.1 mph - N/A   Overcast
9:15 AM 66.2 °F 64.4 °F 94% 30.04 in 10.0 mi South 9.2 mph - N/A   Overcast
9:35 AM 67.1 °F 64.9 °F 93% 30.06 in 10.0 mi South 8.1 mph - N/A   Overcast
9:55 AM 67.5 °F 65.1 °F 92% 30.06 in 10.0 mi South 10.4 mph 17.3 mph N/A   Overcast
10:15 AM 68.4 °F 65.3 °F 90% 30.06 in 10.0 mi South 16.1 mph 19.6 mph N/A   Overcast
10:35 AM 68.9 °F 64.9 °F 87% 30.06 in 10.0 mi South 15.0 mph 21.9 mph N/A   Overcast
10:55 AM 69.3 °F 64.4 °F 84% 30.05 in 10.0 mi South 13.8 mph 23.0 mph N/A   Overcast
11:15 AM 70.0 °F 64.4 °F 82% 30.04 in 10.0 mi South 12.7 mph 18.4 mph N/A   Overcast
11:35 AM 70.0 °F 64.4 °F 82% 30.04 in 10.0 mi South 10.4 mph 17.3 mph N/A   Overcast
11:55 AM 70.0 °F 64.0 °F 81% 30.04 in 10.0 mi South 11.5 mph 18.4 mph N/A   Overcast
12:15 PM 70.2 °F 63.9 °F 80% 30.03 in 10.0 mi SSW 10.4 mph 20.7 mph N/A   Overcast
12:35 PM 70.2 °F 63.5 °F 79% 30.03 in 10.0 mi South 13.8 mph 19.6 mph N/A   Overcast
12:55 PM 69.8 °F 63.5 °F 80% 30.03 in 10.0 mi SSW 9.2 mph 17.3 mph N/A   Overcast
1:15 PM 65.5 °F 60.4 °F 84% 30.03 in 10.0 mi WNW 6.9 mph 17.3 mph N/A   Overcast
1:35 PM 61.9 °F 60.3 °F 94% 30.04 in 2.5 mi NW 9.2 mph - 0.24 in Rain Rain
1:55 PM 61.9 °F 60.8 °F 96% 30.03 in 1.2 mi West 4.6 mph - 0.56 in Rain Heavy Rain
2:15 PM 61.9 °F 60.8 °F 96% 30.04 in 3.0 mi Calm Calm - 0.07 in Rain Rain
2:35 PM 62.1 °F 61.2 °F 97% 30.03 in 10.0 mi SE 4.6 mph - 0.10 in Rain Light Rain
2:55 PM 61.9 °F 61.0 °F 97% 30.04 in 10.0 mi Calm Calm - 0.10 in Rain Light Rain
3:15 PM 62.1 °F 61.3 °F 97% 30.02 in 10.0 mi Calm Calm - 0.02 in Rain Light Rain
3:35 PM 62.2 °F 61.7 °F 98% 30.04 in 10.0 mi SSE 3.5 mph - 0.02 in Rain Light Rain
3:55 PM 62.1 °F 61.3 °F 97% 30.04 in 7.0 mi SSE 3.5 mph - 0.05 in Rain Rain
4:15 PM 62.1 °F 61.5 °F 98% 30.05 in 10.0 mi South 3.5 mph - 0.01 in Rain Rain
4:35 PM 62.2 °F 61.7 °F 98% 30.04 in 7.0 mi Calm Calm - 0.07 in Rain Light Rain
4:55 PM 62.2 °F 61.7 °F 98% 30.06 in 10.0 mi SSE 4.6 mph - 0.10 in Rain Light Rain
5:15 PM 62.1 °F 61.7 °F 99% 30.07 in 7.0 mi SSW 3.5 mph - 0.05 in Rain Rain
5:35 PM 61.9 °F 61.5 °F 99% 30.07 in 7.0 mi Calm Calm - 0.14 in Rain Rain
5:55 PM 61.9 °F 61.5 °F 99% 30.05 in 7.0 mi ESE 4.6 mph - 0.18 in Rain Rain
6:15 PM 61.9 °F 61.7 °F 99% 30.06 in 7.0 mi SE 4.6 mph - 0.04 in Rain Rain
6:35 PM 61.9 °F 61.7 °F 99% 30.04 in 4.0 mi ESE 4.6 mph - 0.07 in Rain Rain
6:55 PM 61.9 °F 61.7 °F 99% 30.04 in 7.0 mi SE 6.9 mph - 0.12 in Rain Light Rain
7:15 PM 61.9 °F 61.7 °F 99% 30.04 in 10.0 mi SE 4.6 mph - N/A   Light Drizzle
7:35 PM 61.9 °F 61.7 °F 99% 30.04 in 10.0 mi SE 4.6 mph - N/A Rain Light Rain
7:55 PM 61.9 °F 61.7 °F 99% 30.04 in 10.0 mi Calm Calm - N/A   Overcast
8:15 PM 61.9 °F 61.7 °F 99% 30.05 in 10.0 mi South 4.6 mph - 0.01 in Rain Rain
8:35 PM 61.9 °F 61.7 °F 99% 30.05 in 5.0 mi South 3.5 mph - 0.07 in Rain Rain
8:55 PM 61.9 °F 61.7 °F 99% 30.05 in 10.0 mi Calm Calm - 0.12 in Rain Light Rain
9:15 PM 61.9 °F 61.7 °F 99% 30.05 in 5.0 mi Calm Calm - 0.06 in Rain Rain
9:35 PM 61.9 °F 61.7 °F 99% 30.04 in 4.0 mi Calm Calm - 0.13 in Rain Heavy Rain
9:55 PM 61.9 °F 61.7 °F 99% 30.04 in 7.0 mi SW 4.6 mph - 0.19 in Rain Rain
10:15 PM 62.1 °F 62.1 °F 100% 30.04 in 7.0 mi SSE 6.9 mph - 0.01 in Rain Light Rain
10:35 PM 62.6 °F 62.6 °F 100% 30.05 in 7.0 mi South 6.9 mph - 0.07 in Rain Heavy Rain
10:55 PM 63.0 °F 62.8 °F 99% 30.05 in 7.0 mi South 4.6 mph - 0.16 in Rain Rain
11:15 PM 63.0 °F 62.8 °F 99% 30.05 in 7.0 mi SSE 6.9 mph - 0.07 in Rain Rain
11:35 PM 63.1 °F 63.0 °F 99% 30.04 in 7.0 mi SSE 8.1 mph - 0.16 in Rain Rain
11:55 PM 63.3 °F 63.0 °F 99% 30.04 in 7.0 mi South 5.8 mph - 0.25 in Rain Rain